This demonstration page uses our WeatherBlox Daily Observations layout. Learn more.

Left ArrowRight Arrow

Hourly Observations for August 24, 2017

Temp ( °F °C ) Dew Point ( °F °C ) Humidity (%) Winds ( mph kmh ) Pressure ( in mb ) Visibility ( mi km ) Precip ( " mm )
12:52 am 00:52 Clear 63 17.2 56 13.3 78 78 E 5 7 30.04 1017 10 16 0.00 0.00
1:52 am 01:52 Clear 61 16.1 56 13.3 84 84 E 3 6 30.03 1017 10 16 0.00 0.00
2:52 am 02:52 Clear 60 15.6 55 12.8 84 84 SE 6 9 30.04 1017 10 16 0.00 0.00
3:52 am 03:52 Clear 61 16.1 55 12.8 81 81 SE 5 7 30.04 1017 10 16 0.00 0.00
4:52 am 04:52 Clear 59 15 54 12.2 83 83 SE 6 9 30.03 1017 10 16 0.00 0.00
5:52 am 05:52 Clear 60 15.6 54 12.2 80 80 SE 5 7 30.04 1017 10 16 0.00 0.00
6:52 am 06:52 Sunny 60 15.6 54 12.2 80 80 SE 5 7 30.05 1018 10 16 0.00 0.00
7:52 am 07:52 Sunny 63 17.2 56 13.3 78 78 SE 6 9 30.05 1018 10 16 0.00 0.00
8:52 am 08:52 Sunny 68 20 58 14.4 70 70 SE 8 13 30.06 1018 10 16 0.00 0.00
9:52 am 09:52 Sunny 72 22.2 62 16.7 71 71 SSE 10 17 30.08 1019 10 16 0.00 0.00
10:52 am 10:52 Sunny 74 23.3 62 16.7 67 67 S 7 11 30.07 1018 10 16 0.00 0.00
11:52 am 11:52 Sunny 76 24.4 60 15.6 58 58 undefined N/A 30.07 1018 10 16 0.00 0.00
12:52 pm 12:52 Sunny 78 25.6 59 15 52 52 undefined N/A 30.05 1018 10 16 0.00 0.00
1:52 pm 13:52 Sunny 79 26.1 58 14.4 49 49 E 12 19 30.04 1017 10 16 0.00 0.00
2:52 pm 14:52 Sunny 80 26.7 60 15.6 51 51 SE 13 20 30.03 1017 10 16 0.00 0.00
3:52 pm 15:52 Sunny 79 26.1 60 15.6 52 52 SSE 10 17 30.01 1016 10 16 0.00 0.00
4:52 pm 16:52 Sunny 80 26.7 59 15 49 49 SE 7 11 30.01 1016 10 16 0.00 0.00
5:52 pm 17:52 Sunny 79 26.1 60 15.6 52 52 SE 9 15 30.00 1016 10 16 0.00 0.00
6:52 pm 18:52 Sunny 77 25 60 15.6 56 56 ESE 7 11 29.99 1016 10 16 0.00 0.00
7:52 pm 19:52 Sunny 74 23.3 61 16.1 64 64 ENE 7 11 29.99 1016 10 16 0.00 0.00
8:52 pm 20:52 Clear 71 21.7 61 16.1 71 71 E 7 11 30.01 1016 10 16 0.00 0.00
9:52 pm 21:52 Clear 69 20.6 60 15.6 73 73 ESE 8 13 30.02 1017 10 16 0.00 0.00
10:52 pm 22:52 Clear 69 20.6 60 15.6 73 73 ESE 9 15 30.03 1017 10 16 0.00 0.00
11:52 pm 23:52 Clear 69 20.6 59 15 70 70 ESE 9 15 30.02 1017 10 16 0.00 0.00

Powered by AerisWeather